Location: *
(46.1866°S, 178.5290°W)
Time: 04:31:39
(UTC+00:00)

Daily predictions for brighter satellites

Satellite Brightness Start Highest point End
(mag) Time Altitude Azimuth Time Altitude Azimuth Time Altitude Azimuth
Meteor 1-26 Rocket 4.3 04:41:42 10° S 04:47:31 89° W 04:53:06 10° N
STARLINK-1273 4.2 04:46:14 10° NW 04:50:15 46° NE 04:54:18 10° ESE
STARLINK-1353 4.4 04:47:01 10° SW 04:50:17 29° S 04:53:33 10° ESE
Cosmos 2123 Rocket 4.1 04:44:11 10° S 04:50:20 54° ESE 04:56:27 10° NNE
STARLINK-1320 4.2 04:49:03 10° SW 04:51:50 26° S 04:54:35 10° ESE
STARLINK-1322 4.2 04:49:22 10° SW 04:52:09 26° S 04:54:54 10° ESE
STARLINK-80 3.8 04:48:22 10° WNW 04:52:11 59° SSW 04:56:01 10° SE
STARLINK-1324 4.2 04:49:43 10° SW 04:52:30 26° S 04:55:16 10° ESE
STARLINK-43 4.4 04:49:15 10° W 04:52:43 33° SSW 04:56:10 10° SE
STARLINK-1294 4.2 04:50:05 10° SW 04:52:50 26° S 04:55:33 10° ESE
STARLINK-1261 4.2 04:50:24 10° SW 04:53:10 26° S 04:55:56 10° ESE
Cosmos 1812 4.0 04:50:20 10° SSE 04:53:20 20° ESE 04:56:18 10° ENE
STARLINK-1375 4.4 04:50:02 10° SW 04:53:21 29° S 04:56:39 10° ESE
STARLINK-1325 4.2 04:50:43 10° SW 04:53:29 26° S 04:56:15 10° ESE
Cosmos 1538 Rocket 4.0 04:48:31 10° NNW 04:53:45 83° ENE 04:59:01 10° SSE
STARLINK-1333 4.2 04:51:06 10° SW 04:53:53 26° S 04:56:39 10° ESE
STARLINK-1334 4.2 04:51:25 10° SW 04:54:12 26° S 04:56:58 10° ESE
COSMOS 2428 3.3 04:49:10 10° N 04:54:27 40° ENE 04:59:49 10° SE
STARLINK-1326 4.2 04:51:46 10° SW 04:54:33 26° S 04:57:19 10° ESE
USA 234 3.4 04:48:12 10° SE 04:54:51 83° SW 05:01:28 10° WNW
STARLINK-1323 4.2 04:52:04 10° SW 04:54:51 26° S 04:57:38 10° ESE
Cosmos 1461 4.0 04:51:40 10° SSW 04:54:55 23° SE 04:58:05 10° E
STARLINK-1288 4.1 04:51:07 10° NW 04:55:11 50° NE 04:59:17 10° ESE
STARLINK-1349 4.2 04:52:27 10° SW 04:55:14 26° S 04:58:01 10° ESE
STARLINK-1336 4.2 04:52:46 10° SW 04:55:33 26° S 04:58:20 10° ESE
STARLINK-1350 4.4 04:52:26 10° SW 04:55:44 29° S 04:59:01 10° ESE
STARLINK-1331 4.2 04:53:09 10° SW 04:55:56 26° S 04:58:43 10° ESE
STARLINK-1344 4.2 04:53:30 10° SW 04:56:17 26° S 04:59:04 10° ESE
STARLINK-1343 4.2 04:53:46 10° SW 04:56:34 26° S 04:59:21 10° ESE
STARLINK-1346 4.2 04:54:12 10° SW 04:56:57 26° S 04:59:42 10° ESE
STARLINK-1328 4.2 04:54:28 10° SW 04:57:15 26° S 05:00:02 10° ESE
STARLINK-1354 4.2 04:54:47 10° SW 04:57:35 26° S 05:00:22 10° ESE
STARLINK-1347 4.2 04:55:09 10° SW 04:57:57 27° S 05:00:44 10° ESE
ADEOS Rocket 3.7 04:50:32 10° NNE 04:58:09 82° ESE 05:06:04 10° SSW
STARLINK-1357 4.2 04:55:29 10° SW 04:58:17 27° SSE 05:01:04 10° ESE
STARLINK-1352 4.4 04:55:10 10° SW 04:58:29 30° S 05:01:46 10° ESE
STARLINK-1335 4.2 04:55:53 10° SW 04:58:41 27° S 05:01:28 10° ESE
STARLINK-1327 4.2 04:56:08 10° SW 04:58:57 27° S 05:01:44 10° ESE
STARLINK-1340 4.2 04:56:30 10° SW 04:59:17 27° SSE 05:02:05 10° ESE
STARLINK-1356 4.2 04:56:49 10° SW 04:59:38 27° SSE 05:02:26 10° ESE
STARLINK-1345 4.2 04:57:10 10° SW 04:59:58 27° SSE 05:02:46 10° ESE
ATLAS 5 CENTAUR R/B 4.1 04:55:15 10° NNE 05:00:01 19° ENE 05:04:35 10° ESE
Cosmos 1515 Rocket 4.1 04:55:33 10° SSW 05:00:01 67° W 05:04:28 10° N
STARLINK-1308 4.0 04:56:05 10° NW 05:00:10 55° NE 05:04:20 10° ESE
STARLINK-1355 4.2 04:57:30 10° SW 05:00:18 27° SSE 05:03:06 10° ESE
STARLINK-1321 4.2 04:57:52 10° SW 05:00:40 27° SSE 05:03:27 10° ESE
STARLINK-1358 4.2 04:58:11 10° SW 05:00:59 27° SSE 05:03:45 10° ESE
STARLINK-1283 3.9 04:57:14 10° W 05:01:01 51° SSW 05:04:49 10° SE
STARLINK-1368 4.4 04:57:55 10° SW 05:01:15 30° S 05:04:33 10° ESE
STARLINK-1332 4.1 04:58:35 10° SW 05:01:24 27° SSE 05:04:08 10° ESE
STARLINK-1348 4.1 04:58:53 10° SW 05:01:42 27° SSE 05:04:25 10° ESE
STARLINK-1330 4.1 04:59:11 10° SW 05:02:00 27° SSE 05:04:43 11° ESE
STARLINK-60 3.0 04:58:58 10° WSW 05:02:16 88° SSE 05:05:31 10° ENE
STARLINK-1311 3.6 04:59:21 10° W 05:02:17 42° SSW 05:05:12 10° SE
Meteor 1-31 Rocket 3.3 04:58:19 10° S 05:02:19 64° WSW 05:06:15 10° NNW
STARLINK-1363 4.1 04:59:35 10° SW 05:02:25 27° SSE 05:05:07 11° ESE
STARLINK-1337 4.1 04:59:52 10° SW 05:02:42 27° SSE 05:05:23 11° ESE
STARLINK-1342 4.1 05:00:13 10° SW 05:03:02 27° SSE 05:05:42 11° ESE
STARLINK-1364 4.1 05:00:32 10° SW 05:03:21 27° SSE 05:06:01 11° ESE
STARLINK-1376 4.1 05:00:54 10° SW 05:03:44 27° SSE 05:06:22 11° ESE
STARLINK-1369 4.3 05:00:42 10° SW 05:04:02 31° S 05:07:12 11° ESE
STARLINK-1360 4.1 05:01:13 10° SW 05:04:03 27° SSE 05:06:40 11° ESE
STARLINK-1361 4.1 05:01:33 10° SW 05:04:22 27° SSE 05:06:59 11° ESE
STARLINK-1367 4.1 05:01:55 10° SW 05:04:43 27° SSE 05:07:16 11° ESE
STARLINK-1366 4.1 05:02:17 10° SW 05:05:08 28° SSE 05:07:42 11° ESE
COSMO-SKYMED 1 2.6 05:01:22 10° NNE 05:05:46 88° ESE 05:10:13 10° SSW
Cosmos 1821 Rocket 4.2 04:59:53 10° NNW 05:06:01 78° W 05:12:18 10° S
STARLINK-1372 4.3 05:03:29 10° SW 05:06:50 31° S 05:09:53 12° ESE
STARLINK-61 4.1 05:03:10 10° NNW 05:06:56 43° NE 05:10:27 12° ESE
Cosmos 2237 Rocket 3.5 05:03:04 10° NE 05:07:05 20° E 05:11:03 10° SE
CZ-4B R/B 4.1 05:02:29 10° SE 05:07:08 27° E 05:11:48 10° NNE
STARLINK-42 4.0 05:05:19 10° W 05:08:23 36° SSW 05:11:15 11° SE
STARLINK-1316 3.7 05:05:19 10° W 05:08:24 44° SSW 05:11:15 12° SE
Cosmos 1707 Rocket 4.3 05:04:42 10° S 05:08:43 31° ESE 05:12:39 10° NE
Iridium 96 3.2 05:07:26 10° SSE 05:09:06 36° E 05:10:45 10° NNE
STARLINK-1257 3.7 05:06:15 10° W 05:09:20 43° SSW 05:12:08 12° SE
SL-16 R/B 3.8 05:04:36 10° WNW 05:09:34 30° SW 05:14:34 10° S
STARLINK-1378 4.3 05:06:32 10° SW 05:09:55 32° SSE 05:12:53 12° ESE
STARLINK-1304 3.8 05:05:57 10° NW 05:10:06 64° NE 05:13:54 12° ESE
STARLINK-1256 3.7 05:07:09 10° W 05:10:13 43° SSW 05:13:00 12° SE
Cosmos 1633 2.6 05:06:37 10° N 05:10:16 85° W 05:13:58 10° S
STARLINK-1213 3.7 05:08:03 10° W 05:11:08 42° SSW 05:13:52 12° SE
STARLINK-1263 3.7 05:08:58 10° W 05:12:02 42° SSW 05:14:44 13° SE
STARLINK-1329 4.3 05:08:49 10° SW 05:12:12 32° SSE 05:15:02 13° ESE
STARLINK-1286 3.8 05:08:11 10° NW 05:12:23 69° NE 05:16:08 13° ESE
STARLINK-1379 4.3 05:09:05 10° SW 05:12:28 32° SSE 05:15:17 13° ESE
STARLINK-1259 3.7 05:09:52 10° W 05:12:56 42° SSW 05:15:35 13° SE
STARLINK-1265 3.7 05:10:25 10° W 05:13:27 41° SSW 05:16:03 13° SE
Cosmos 2228 Rocket 3.2 05:09:09 10° S 05:13:47 86° W 05:18:18 10° N
STARLINK-1285 3.8 05:10:46 10° W 05:13:50 41° SSW 05:16:27 13° SE
STARLINK-1268 3.8 05:11:26 10° W 05:14:28 41° SSW 05:17:02 13° SE
STARLINK-1362 4.2 05:11:59 10° SW 05:15:26 33° SSE 05:18:12 14° ESE
STARLINK-1365 4.2 05:12:13 10° SW 05:15:40 34° SSE 05:18:26 14° ESE
STARLINK-1296 3.8 05:12:38 10° W 05:15:41 40° SSW 05:18:13 14° SE
STARLINK-1260 3.8 05:13:32 10° W 05:16:34 40° SSW 05:19:04 14° SE
STARLINK-1318 3.8 05:14:27 10° W 05:17:29 39° SSW 05:19:57 14° SE
Cosmos 1371 Rocket 4.5 05:12:56 10° S 05:18:05 41° ESE 05:23:09 10° NE
STARLINK-1373 4.2 05:14:47 10° SW 05:18:14 34° SSE 05:20:51 15° ESE
STARLINK-1275 3.8 05:15:19 10° W 05:18:21 39° SSW 05:20:46 14° SE
USA 116 4.4 05:14:11 10° NNE 05:18:59 62° ESE 05:24:14 10° S
STARLINK-1309 3.9 05:16:13 10° W 05:19:15 39° SSW 05:21:39 15° SE
STARLINK-1282 3.9 05:17:10 10° W 05:20:11 38° SSW 05:22:32 15° SE
Cosmos 1934 Rocket 4.1 05:14:15 10° N 05:20:36 85° E 05:27:06 10° S
STARLINK-1390 4.2 05:17:29 10° SW 05:20:55 34° SSE 05:23:23 16° ESE
STARLINK-1313 4.0 05:18:15 10° W 05:21:15 36° SSW 05:23:32 15° SE
STARLINK-62 3.6 05:18:23 10° W 05:21:33 46° SSW 05:23:57 16° SE
STARLINK-1279 4.0 05:19:14 10° W 05:22:13 35° SSW 05:24:28 15° SE
STARLINK-1298 3.9 05:19:52 10° W 05:22:53 37° SSW 05:25:07 16° SE
STARLINK-1029 3.3 05:19:46 10° WNW 05:22:55 55° SSW 05:25:14 17° SE
STARLINK-34 3.7 05:20:20 10° W 05:23:30 45° SSW 05:25:50 16° SE
STARLINK-1293 3.9 05:20:49 10° W 05:23:50 37° SSW 05:26:02 16° SE
Cosmos 158 Rocket 4.3 05:19:42 10° N 05:24:38 46° ENE 05:29:44 10° SSE
STARLINK-1301 4.1 05:21:29 10° W 05:24:51 39° SSW 05:27:22 16° SE
STARLINK-55 4.3 05:22:28 10° WSW 05:25:24 30° SSW 05:27:31 16° SE
STARLINK-1255 4.0 05:22:37 10° W 05:25:37 36° SSW 05:27:44 16° SE
STARLINK-1299 3.7 05:21:58 10° WNW 05:26:18 87° SSW 05:29:38 17° ESE
Cosmos 1743 Rocket 4.4 05:22:18 10° NNW 05:26:38 55° WSW 05:31:04 10° S
STARLINK-1306 3.7 05:22:30 10° WNW 05:26:47 86° NE 05:30:00 17° ESE
Cosmos 2333 Rocket 2.2 05:21:09 10° NNW 05:26:56 81° ENE 05:32:46 10° SSE
Cosmos 405 2.9 05:23:27 10° S 05:27:02 62° ESE 05:30:33 10° NNE
Cosmos 2112 Rocket 4.3 05:23:00 10° N 05:28:06 49° ENE 05:33:14 10° SSE
STARLINK-1307 4.1 05:24:49 10° W 05:28:13 40° SSW 05:30:38 17° SE
Okean O Rocket 2.2 05:24:37 10° SSE 05:28:47 37° E 05:32:55 10° NNE
H-2A R/B 3.4 05:25:37 10° SSE 05:29:14 35° E 05:32:50 10° NNE
Meteor 1-10 Rocket 4.2 05:24:10 10° S 05:29:52 77° ESE 05:35:36 10° NNE
STARLINK-1281 3.6 05:25:47 10° NW 05:29:59 85° NNE 05:33:02 19° ESE
FENGYUN 3A 4.2 05:24:46 10° S 05:30:11 61° WSW 05:35:32 10° NNW
Cosmos 2278 Rocket 2.4 05:24:53 10° SSW 05:30:27 50° ESE 05:35:58 10° NE
STARLINK-1290 4.1 05:27:34 10° W 05:30:57 39° SSW 05:33:15 18° SE
STARLINK-29 2.9 05:27:46 10° WSW 05:31:06 80° SSE 05:34:00 13° ENE
Cosmos 1605 Rocket 4.0 05:25:17 10° N 05:31:27 69° E 05:37:37 10° SSE
Cosmos 1844 Rocket 4.3 05:26:40 10° SW 05:31:56 40° WNW 05:37:10 10° N
Cosmos 1484 Rocket 4.5 05:28:43 10° S 05:32:15 33° WSW 05:35:41 10° NW
STARLINK-1297 4.1 05:30:15 10° W 05:33:37 38° SSW 05:35:48 19° SE
Sich 1 3.1 05:29:24 10° N 05:33:43 59° E 05:38:10 10° SSE
STARLINK-26 4.4 05:31:06 10° WSW 05:34:16 30° SSW 05:36:13 18° SE
STARLINK-68 4.4 05:31:21 10° NNW 05:34:50 33° NE 05:36:47 20° E
STARLINK-1310 3.6 05:30:46 10° WNW 05:34:59 89° SSW 05:37:49 20° ESE
STARLINK-28 4.4 05:33:00 10° WSW 05:35:54 27° S 05:37:31 18° SE
STARLINK-63 4.4 05:32:56 10° NNW 05:36:26 32° NE 05:38:18 21° E
SMAP 3.9 05:32:36 12° SE 05:36:26 30° E 05:40:33 10° NNE
STARLINK-41 4.3 05:35:04 10° WSW 05:37:56 29° SSW 05:39:29 19° SSE
STARLINK-35 4.5 05:34:28 10° NNW 05:37:57 32° NE 05:39:43 21° E
STARLINK-51 4.4 05:36:08 10° NNW 05:39:38 33° NE 05:41:22 22° E
STARLINK-1319 3.6 05:35:45 10° WNW 05:39:57 84° SSW 05:42:36 22° ESE
Cosmos 2322 4.3 05:35:18 10° NW 05:40:55 59° WSW 05:46:35 10° SSE
Cosmos 1346 Rocket 3.3 05:37:12 10° NNW 05:41:08 63° WSW 05:45:09 10° S
PSLV R/B 4.2 05:37:03 10° S 05:41:15 69° WSW 05:45:20 10° NNW
STARLINK-30 4.4 05:37:43 10° NNW 05:41:15 34° NE 05:42:55 23° E
STARLINK-48 4.0 05:37:38 10° W 05:41:31 52° SSW 05:43:52 22° SE
STARLINK-72 4.3 05:39:24 10° NNW 05:42:57 35° NE 05:44:35 24° E
Cosmos 2360 Rocket 3.7 05:39:00 10° WNW 05:44:08 34° SW 05:49:21 10° SSE
STARLINK-1277 3.7 05:40:43 10° WNW 05:44:56 79° SSW 05:47:22 24° SE
STARLINK-59 4.2 05:42:38 10° NNW 05:46:16 39° NE 05:47:48 26° E
Cosmos 2056 Rocket 3.6 05:41:18 10° SSW 05:46:39 58° ESE 05:51:50 10° NE
STARLINK-56 4.2 05:44:13 10° NNW 05:47:50 38° NE 05:49:17 27° E
ATLAS 2AS CENTAUR R/B 3.6 05:42:52 10° SSW 05:48:22 28° SSE 05:51:07 21° ESE
STARLINK-73 4.1 05:45:50 10° NNW 05:49:28 39° NE 05:50:52 28° E
STARLINK-1276 3.7 05:45:43 10° WNW 05:49:55 74° SSW 05:52:09 27° SE
STARLINK-1291 4.3 05:47:30 10° W 05:50:35 31° SSW 05:51:51 24° SSE
STARLINK-38 4.1 05:47:27 10° NNW 05:51:07 40° NE 05:52:27 29° E
STARLINK-1317 4.4 05:48:28 10° W 05:51:46 32° SSW 05:53:10 24° SSE
SL-24 R/B 4.4 05:46:54 10° N 05:51:57 90° W 05:56:53 10° S
NOAA 6 4.0 05:46:52 10° SSE 05:52:06 81° ENE 05:57:16 10° NNW
STARLINK-1019 4.5 05:48:33 10° NNW 05:52:22 35° NE 05:53:46 27° E
STARLINK-1264 4.4 05:49:24 10° WSW 05:52:30 31° SSW 05:53:41 24° SSE
STARLINK-24 4.0 05:48:46 10° NNW 05:52:39 45° NE 05:54:10 30° E
STARLINK-65 4.0 05:49:05 10° NNW 05:52:46 42° NE 05:54:03 31° E
STARLINK-33 4.5 05:50:50 10° WSW 05:53:40 26° S 05:54:33 23° SSE
CZ-2C R/B 3.6 05:53:39 24° ESE 05:53:57 24° ESE 05:58:14 10° S
MOS 1-B 4.5 05:48:04 10° SSE 05:53:58 82° WSW 05:59:49 10° NNW
STARLINK-1267 4.4 05:51:21 10° WSW 05:54:27 31° SSW 05:55:35 25° SSE
SJ-7 4.3 05:50:22 10° SSE 05:54:28 88° ENE 05:58:30 10° NNW
STARLINK-53 3.9 05:50:56 10° NW 05:54:41 45° NE 05:55:58 32° E
STARLINK-1305 3.8 05:50:43 10° WNW 05:54:54 70° SSW 05:56:57 29° SE
STARLINK-25 3.9 05:52:33 10° NNW 05:56:07 42° NE 05:57:08 33° E
STARLINK-1272 4.4 05:53:15 10° WSW 05:56:21 30° SSW 05:57:24 25° SSE
STARLINK-1012 4.3 05:53:25 10° NNW 05:57:19 38° NE 05:58:32 31° E
STARLINK-64 3.9 05:54:01 10° W 05:57:31 47° SSW 05:58:52 31° SSE
Cosmos 1818 3.7 05:52:36 10° NNW 05:57:51 54° ENE 06:00:42 26° SE
STARLINK-1207 4.4 05:55:11 10° WSW 05:58:18 30° SSW 05:59:15 26° SSE
STARLINK-1278 4.0 05:54:26 10° WNW 05:58:43 60° SSW 06:00:43 30° SE
STARLINK-1262 3.8 05:55:43 10° WNW 05:59:54 66° SSW 06:01:44 32° SE
Cosmos 1666 Rocket 3.4 05:55:49 10° N 06:00:12 77° E 06:04:38 10° SSE
STARLINK-1266 4.4 05:57:11 10° WSW 06:00:17 30° SSW 06:01:09 26° SSE
STARLINK-1280 4.0 05:56:17 10° WNW 06:00:34 59° SSW 06:02:29 30° SE
Shenzhou-11 Module 2.7 05:58:42 10° WNW 06:01:07 34° N 06:01:12 34° NNE
H-2A R/B 4.3 05:58:01 10° S 06:01:44 30° WSW 06:05:18 10° NW
STARLINK-1284 4.4 05:59:12 10° WSW 06:02:16 29° SSW 06:03:04 26° SSE
Cosmos 1633 Rocket 3.0 05:57:55 10° N 06:02:19 67° E 06:06:32 12° SSE
STARLINK-66 4.5 05:59:38 10° WSW 06:02:26 25° S 06:02:55 24° S
YAOGAN 6 3.2 06:03:03 38° ENE 06:03:03 38° ENE 06:06:24 10° NNE
ALOS 4.3 05:59:11 10° S 06:03:11 27° WSW 06:07:09 10° WNW
BREEZE-M DEB (TANK) 3.9 05:59:30 10° WSW 06:03:25 72° NNW 06:18:26 10° NE
STARLINK-1258 4.4 06:01:08 10° WSW 06:04:13 29° SSW 06:04:55 27° SSE
STARLINK-1300 3.9 06:00:41 10° WNW 06:04:52 62° SSW 06:06:29 34° SE
Centaur D AC-29 4.1 05:59:19 10° NW 06:05:00 15° NNW 06:08:10 10° NNE
STARLINK-1292 4.4 06:03:08 10° WSW 06:06:12 29° S 06:06:49 27° S
STARLINK-1026 4.1 06:03:14 10° NNW 06:07:14 45° NE 06:08:07 39° ENE
STARLINK-52 3.4 06:04:00 10° WSW 06:07:16 59° NW 06:08:30 32° NNE
Cosmos 2219 Rocket 2.8 06:01:52 10° NW 06:07:28 56° WSW 06:13:00 11° SSE
Cosmos 2100 Rocket 4.0 06:02:12 10° NNE 06:08:13 54° E 06:14:16 10° SSE
STARLINK-1274 4.4 06:05:10 10° WSW 06:08:14 29° S 06:08:46 27° S
STARLINK-50 3.7 06:04:47 10° NW 06:08:46 56° NE 06:09:41 44° E
Cosmos 1680 Rocket 3.8 06:03:37 10° NNW 06:08:54 67° WSW 06:14:00 11° SSE
STARLINK-1338 3.4 06:06:11 10° SW 06:09:47 54° SSE 06:10:05 52° SE
STARLINK-1295 4.0 06:05:44 10° WNW 06:09:53 59° SSW 06:11:18 37° SE
STARLINK-1289 4.4 06:07:14 10° WSW 06:10:18 28° S 06:10:44 27° S
FALCON 9 DEB 3.2 06:08:34 10° WSW 06:12:07 81° NW 06:12:54 51° NE
STARLINK-1013 4.0 06:08:06 10° NW 06:12:09 49° NE 06:12:52 43° ENE
STARLINK-1303 4.5 06:09:13 10° WSW 06:12:17 28° S 06:12:38 28° S
STARLINK-1312 4.5 06:11:15 10° WSW 06:14:18 28° S 06:14:34 28° S
STARLINK-1287 4.0 06:10:43 10° WNW 06:14:51 56° SSW 06:16:03 40° SSE
STARLINK-1371 3.3 06:11:38 10° SW 06:15:16 58° SSE 06:15:21 57° SSE
Cosmos 1452 Rocket 3.9 06:12:00 10° S 06:17:02 40° ESE 06:17:29 39° ESE
STARLINK-1009 3.8 06:13:02 10° NW 06:17:07 53° NE 06:17:39 49° ENE
STARLINK-1341 3.3 06:14:22 10° SW 06:18:03 60° SSE 06:18:03 60° SSE
Cosmos 1153 Rocket 4.5 06:12:26 10° N 06:18:37 83° W 06:24:53 10° S
SL-4 R/B 4.2 06:16:32 10° W 06:19:33 23° NW 06:22:43 10° N
STARLINK-58 4.5 06:17:14 10° WSW 06:19:58 27° SSW 06:19:58 27° SSW
Cosmos 1420 Rocket 4.0 06:15:09 10° SSW 06:20:30 60° ESE 06:24:08 20° NE
STARLINK-1374 3.3 06:16:57 10° SW 06:20:30 61° SSE 06:20:30 61° SSE
STARLINK-1015 3.7 06:17:58 10° NW 06:22:05 57° NE 06:22:26 55° ENE
Cosmos 1980 3.6 06:16:43 10° NNW 06:22:25 81° ENE 06:25:39 27° SSE
CZ-4C R/B 4.2 06:18:31 10° SW 06:22:35 16° S 06:24:38 14° SSE
STARLINK-1339 3.4 06:19:40 10° SW 06:23:09 63° S 06:23:09 63° S
STARLINK-1302 4.2 06:20:45 10° W 06:24:52 50° SSW 06:25:38 44° SSE
Cosmos 2061 Rocket 4.2 06:19:06 10° NNE 06:25:03 47° E 06:28:12 26° SSE
Cosmos 1238 Rocket 3.0 06:20:50 10° NNW 06:25:21 76° W 06:27:18 28° S
STARLINK-1377 3.4 06:21:52 10° WSW 06:25:11 61° S 06:25:11 61° S
Envisat 2.9 06:21:19 15° SSE 06:25:41 79° ENE 06:30:49 10° N
STARLINK-1016 3.6 06:22:54 10° NW 06:27:03 62° NE 06:27:13 62° NE
STARLINK-1320 3.8 06:24:48 10° WSW 06:27:09 45° SW 06:27:09 45° SW
STARLINK-1353 3.5 06:24:34 10° WSW 06:27:46 60° SSW 06:27:46 60° SSW
STARLINK-1322 3.8 06:25:07 10° WSW 06:27:28 44° SW 06:27:28 44° SW
STARLINK-1324 3.8 06:25:28 10° WSW 06:27:48 44° SW 06:27:48 44° SW
STARLINK-1294 3.9 06:25:50 10° WSW 06:28:05 42° SW 06:28:05 42° SW
STARLINK-1261 3.9 06:26:08 10° WSW 06:28:26 43° SW 06:28:26 43° SW
Feng Yun 1-1 Rocket 4.2 06:27:58 40° SE 06:29:39 55° ENE 06:35:00 10° N
STARLINK-1325 3.9 06:26:28 10° WSW 06:28:45 43° SW 06:28:45 43° SW
STARLINK-1273 4.2 06:25:47 10° W 06:29:52 48° SSW 06:30:25 45° S
Meteor 1-20 Rocket 4.3 06:24:17 10° N 06:29:55 57° E 06:32:29 32° SSE
STARLINK-1333 3.9 06:26:50 10° WSW 06:29:07 42° SW 06:29:07 42° SW
STARLINK-1334 3.9 06:27:10 10° WSW 06:29:26 42° SW 06:29:26 42° SW
Cosmos 2297 3.9 06:25:03 10° SSW 06:30:30 45° SE 06:30:33 45° ESE
STARLINK-1326 4.0 06:27:30 10° WSW 06:29:45 41° SW 06:29:45 41° SW
USA 40 PKM 4.2 06:26:19 10° NW 06:30:47 82° SW 06:31:05 73° SSE
STARLINK-1323 4.0 06:27:49 10° WSW 06:30:04 41° SW 06:30:04 41° SW
NOSS 0 Rocket 4.0 06:24:55 10° NNW 06:31:12 78° WSW 06:35:22 23° SSE
STARLINK-1349 4.0 06:28:11 10° WSW 06:30:25 41° SW 06:30:25 41° SW
STARLINK-1375 3.6 06:27:41 10° WSW 06:30:53 60° SSW 06:30:53 60° SSW
STARLINK-1336 4.0 06:28:30 10° WSW 06:30:43 40° SW 06:30:43 40° SW
STARLINK-1008 3.6 06:27:52 10° NW 06:32:01 67° NNE 06:32:01 67° NNE
STARLINK-1331 4.1 06:28:53 10° WSW 06:31:05 40° SW 06:31:05 40° SW
STARLINK-1344 4.1 06:29:14 10° WSW 06:31:25 40° SW 06:31:25 40° SW
STARLINK-1343 4.1 06:29:31 10° WSW 06:31:42 39° SW 06:31:42 39° SW
Helios 1A Rocket 2.8 06:33:10 68° NE 06:33:10 68° NE 06:36:54 10° N
STARLINK-1346 4.2 06:29:56 10° WSW 06:32:01 37° SW 06:32:01 37° SW
STARLINK-1328 4.1 06:30:12 10° WSW 06:32:21 39° SW 06:32:21 39° SW
STARLINK-1350 3.7 06:29:58 10° WSW 06:32:59 56° SW 06:32:59 56° SW
STARLINK-1354 4.2 06:30:31 10° WSW 06:32:39 38° SW 06:32:39 38° SW
STARLINK-81 3.5 06:29:53 10° NW 06:33:34 75° NNW 06:33:34 75° NNW
STARLINK-1347 4.2 06:30:53 10° WSW 06:33:01 38° SW 06:33:01 38° SW
Cosmos 1461 3.7 06:30:23 10° SW 06:34:13 47° WNW 06:36:32 21° N
STARLINK-1357 4.2 06:31:13 10° WSW 06:33:19 38° SW 06:33:19 38° SW
STARLINK-1335 4.2 06:31:37 10° WSW 06:33:42 37° SW 06:33:42 37° SW
STARLINK-1288 4.2 06:30:47 10° W 06:34:51 46° SSW 06:35:11 45° S
STARLINK-1327 4.2 06:31:53 10° WSW 06:33:58 37° SW 06:33:58 37° SW
STARLINK-54 3.5 06:31:31 10° WNW 06:35:11 78° NW 06:35:11 78° NW
STARLINK-1340 4.3 06:32:13 10° WSW 06:34:18 37° WSW 06:34:18 37° WSW
Cosmos 2016 Rocket 4.0 06:29:25 10° NNE 06:35:32 56° E 06:39:14 25° SSE
STARLINK-1356 4.3 06:32:34 10° WSW 06:34:38 36° WSW 06:34:38 36° WSW
STARLINK-1345 4.3 06:32:54 10° WSW 06:34:57 36° WSW 06:34:57 36° WSW
STARLINK-1352 3.8 06:32:41 10° WSW 06:35:37 53° SW 06:35:37 53° SW
STARLINK-1355 4.3 06:33:14 10° WSW 06:35:16 36° WSW 06:35:16 36° WSW
STARLINK-1321 4.3 06:33:36 10° WSW 06:35:37 35° WSW 06:35:37 35° WSW
STARLINK-77 3.5 06:32:57 10° NW 06:36:31 72° NW 06:36:31 72° NW
STARLINK-1014 3.6 06:32:49 10° NW 06:36:51 71° N 06:36:51 71° N
STARLINK-1358 4.4 06:33:55 10° WSW 06:35:55 35° WSW 06:35:55 35° WSW
Cosmos 2173 Rocket 3.9 06:31:04 10° N 06:37:21 82° E 06:43:38 10° S
USA 234 4.1 06:34:22 27° SE 06:37:25 41° SSW 06:43:31 10° W
STARLINK-1332 4.4 06:34:19 10° WSW 06:36:18 35° WSW 06:36:18 35° WSW
STARLINK-1348 4.4 06:34:37 10° WSW 06:36:35 34° WSW 06:36:35 34° WSW
STARLINK-1330 4.4 06:34:55 10° WSW 06:36:53 34° WSW 06:36:53 34° WSW
STARLINK-1363 4.5 06:35:20 10° WSW 06:37:17 34° WSW 06:37:17 34° WSW
COSMOS 2428 4.0 06:33:25 10° WNW 06:38:45 38° SW 06:43:21 14° S
STARLINK-1337 4.5 06:35:37 10° WSW 06:37:32 33° WSW 06:37:32 33° WSW
STARLINK-1368 4.0 06:35:28 10° WSW 06:38:16 50° SW 06:38:16 50° SW
STARLINK-1308 4.4 06:35:51 10° W 06:39:53 44° SSW 06:40:00 44° SSW
STARLINK-1010 3.7 06:36:19 10° NW 06:40:25 78° N 06:40:25 78° N
Lacrosse 5 rocket 2.6 06:37:25 10° NNW 06:40:18 33° N 06:40:18 33° N
STARLINK-79 3.7 06:37:51 10° WNW 06:41:14 65° WNW 06:41:14 65° WNW
STARLINK-1369 4.1 06:38:14 10° WSW 06:40:57 47° SW 06:40:57 47° SW
STARLINK-1025 3.7 06:37:48 10° NW 06:41:36 70° NNW 06:41:36 70° NNW
DMSP B5D2-2 4.1 06:42:44 56° SE 06:42:44 56° SE 06:47:23 10° S
STARLINK-78 3.8 06:39:28 10° WNW 06:42:46 62° WNW 06:42:46 62° WNW
COSMOS 2455 4.5 06:39:01 10° SSW 06:42:03 19° SSE 06:42:03 19° SSE
ATLAS 5 CENTAUR R/B 2.5 06:36:55 10° NNW 06:44:07 82° NE 06:46:25 45° SE
Cosmos 1459 Rocket 3.9 06:38:15 10° N 06:44:30 89° W 06:50:56 10° S
STARLINK-1372 4.3 06:41:02 10° WSW 06:43:39 44° WSW 06:43:39 44° WSW
STARLINK-57 3.9 06:41:13 10° WNW 06:44:29 60° WNW 06:44:29 60° WNW
STARLINK-61 4.3 06:41:49 10° W 06:45:19 45° SW 06:45:19 45° SW
STARLINK-49 4.0 06:42:46 10° WNW 06:45:57 57° WNW 06:45:57 57° WNW
STARLINK-1017 3.9 06:42:43 10° NW 06:46:20 65° NW 06:46:20 65° NW
CZ-4B R/B 4.1 06:42:38 10° S 06:47:52 47° WSW 06:53:09 10° NW
STARLINK-1378 4.4 06:44:10 10° WSW 06:46:44 42° WSW 06:46:44 42° WSW
STARLINK-27 4.1 06:44:20 10° WNW 06:47:26 54° WNW 06:47:26 54° WNW
Cosmos 371 Rocket 3.6 06:43:44 10° SSW 06:47:37 54° S 06:47:37 54° S
SL-24 R/B - RUBIN 2 3.9 06:44:04 10° NNW 06:48:23 59° N 06:48:23 59° N
Cosmos 1470 Rocket 3.8 06:44:55 10° NNW 06:49:26 72° W 06:50:24 53° SSW
STARLINK-74 4.2 06:46:00 10° WNW 06:49:02 52° WNW 06:49:02 52° WNW
Cosmos 2237 Rocket 2.4 06:44:54 10° NW 06:50:33 68° WSW 06:52:55 36° S
CORIOLIS 4.3 06:47:22 20° S 06:51:18 77° WSW 06:56:45 10° NNW
STARLINK-39 4.3 06:47:36 10° WNW 06:50:34 50° WNW 06:50:34 50° WNW
Cosmos 1943 Rocket 3.7 06:46:31 10° S 06:48:59 22° S 06:48:59 22° S
STARLINK-1023 4.1 06:47:42 10° WNW 06:51:07 58° WNW 06:51:07 58° WNW
STARLINK-31 4.4 06:49:15 10° WNW 06:52:08 47° WNW 06:52:08 47° WNW
Cosmos 2369 Rocket 3.9 06:48:25 10° S 06:50:30 19° S 06:50:30 19° S
STARLINK-69 4.5 06:51:03 10° WNW 06:53:54 45° W 06:53:54 45° W
NOAA 12 4.3 06:53:40 28° S 06:56:36 72° WSW 07:01:51 10° NNW
STARLINK-1007 4.3 06:52:42 10° WNW 06:55:56 52° WNW 06:55:56 52° WNW
ATLAS CENTAUR R/B 3.8 06:53:23 10° SSW 06:54:47 17° S 06:54:47 17° S
BREEZE-M DEB (TANK) 4.4 06:43:58 10° NW 06:59:01 54° NNE 06:59:38 52° NE
Okean O Rocket 3.7 07:01:17 10° S 07:04:58 26° WSW 07:08:39 10° WNW
SL-16 R/B 2.8 07:00:29 10° NNW 07:04:24 44° N 07:04:24 44° N
IRS-1C Rocket 4.2 07:09:07 67° SSW 07:09:39 73° WSW 07:14:55 10° NNW
Cosmos 1802 Rocket 4.2 07:04:48 10° NNW 07:11:15 71° W 07:17:45 10° S
BREEZE M DEB (TANK) 3.9 06:48:18 10° WSW 07:11:54 88° SSE 07:13:12 65° ENE
Cosmos 2333 Rocket 4.3 07:07:31 10° W 07:11:55 22° SW 07:15:33 13° S
NOSS 3-4 (A) 3.7 07:06:33 10° SW 07:13:17 63° SSE 07:13:17 63° SSE
Cosmos 1725 Rocket 3.9 07:07:30 10° N 07:13:48 86° E 07:13:48 86° E
NOSS 3-4 (C) 3.7 07:06:39 10° SW 07:13:20 62° SSE 07:13:20 62° SSE
Cosmos 2278 Rocket 4.1 07:09:28 10° SW 07:14:15 28° WNW 07:18:59 10° NNW
Cosmos 2346 Rocket 4.5 07:09:32 10° S 07:15:42 77° W 07:21:46 10° N
Cosmos 967 Rocket 4.3 07:09:30 10° NNW 07:15:39 87° NW 07:15:39 87° NW
SL-08 R/B 4.5 07:18:29 10° NNW 07:24:23 76° WNW 07:24:23 76° WNW
CZ-2C R/B 3.6 07:35:11 45° SW 07:35:11 45° SW 07:39:14 10° SSW
Tsikada Rocket 4.3 07:28:02 10° SSW 07:33:32 63° SW 07:33:32 63° SW
ATLAS 2AS CENTAUR R/B 3.0 07:33:26 10° SW 07:38:34 58° SSW 07:38:34 58° SSW
ATLAS 5 CENTAUR R/B 4.2 08:23:23 10° W 08:27:59 29° WSW 08:27:59 29° WSW
